Flag for U.S.A. Weather past 2 weeks in Charleston, South Carolina, U.S.A.

Now
70 °F

Clear.


Feels Like: 67 °F
Forecast: 68 / 84 °F
Wind: No wind

Location: Charleston Air Force Base Reporting Station

Current Time: May 28, 2015 at 5:02:50 AM

Latest Report: May 28, 2015 at 3:56 AM


Visibility: 10 mi

Pressure: 30.16 "Hg

Humidity: 90%

Dew point: 67 °F

Location of CharlestonLocation

Historic Weather in Charleston — Graph

°F

Charleston temperature yesterday

Maximum temperature yesterday: 85 °F (at 1:56 PM)
Minimum temperature yesterday: 72 °F (at 5:56 AM)
Average temperature yesterday: 78 °F

Past Weeks' High & Low Weather Summary

 TemperatureHumidityPressure
High91 °F (May 19, 3:56 PM)97% (May 14, 3:56 AM)30.37 "Hg (May 14, 3:56 AM)
Low59 °F (May 24, 5:56 AM)33% (May 21, 5:56 PM)29.80 "Hg (May 21, 4:56 PM)
Average74 °F71%30.18 "Hg
* Reported May 13 3:56 AM — May 28 3:56 AM, Charleston, Weather by CustomWeather, © 2015

Note: Actual official high and low records may vary slightly from our data, if they occured in-between our weather recording intervals... More about our weather records

Advertising

Charleston weather history for previous 24 hours

 ConditionsComfort  
Time TempWeatherWind HumidityBarometerVisibility
3:56 AM
Thu, May 28
70 °FClear.No wind90%30.16 "Hg10 mi
2:56 AM69 °FClear.No wind90%30.19 "Hg10 mi
1:56 AM70 °FClear.No wind90%30.19 "Hg10 mi
12:56 AM71 °FPassing clouds.3 mph87%30.21 "Hg10 mi
11:56 PM
Wed, May 27
73 °FPassing clouds.3 mph81%30.22 "Hg10 mi
10:56 PM75 °FPassing clouds.3 mph76%30.21 "Hg10 mi
9:56 PM74 °FPassing clouds.6 mph76%30.21 "Hg10 mi
8:56 PM76 °FScattered clouds.9 mph69%30.20 "Hg10 mi
7:56 PM78 °FBroken clouds.9 mph66%30.20 "Hg10 mi
6:56 PM79 °FScattered clouds.8 mph65%30.20 "Hg10 mi
5:56 PM81 °FScattered clouds.12 mph58%30.19 "Hg10 mi
4:56 PM84 °FScattered clouds.10 mph53%30.19 "Hg10 mi
3:56 PM83 °FScattered clouds.12 mph55%30.20 "Hg10 mi
2:56 PM85 °FScattered clouds.13 mph51%30.22 "Hg10 mi
1:56 PM85 °FScattered clouds.7 mph51%30.24 "Hg10 mi
12:56 PM83 °FPartly sunny.8 mph55%30.24 "Hg10 mi
11:56 AM83 °FPartly sunny.7 mph55%30.26 "Hg10 mi
10:56 AM81 °FScattered clouds.7 mph60%30.26 "Hg10 mi
9:56 AM82 °FScattered clouds.7 mph60%30.27 "Hg10 mi
8:56 AM79 °FBroken clouds.7 mph69%30.27 "Hg10 mi
7:56 AM76 °FBroken clouds.5 mph85%30.25 "Hg10 mi
6:56 AM73 °FPassing clouds.No wind88%30.22 "Hg10 mi
5:56 AM72 °FPassing clouds.3 mph91%30.19 "Hg10 mi
Weather by CustomWeather, © 2015

See weather overviewHow to use our weather pages